Location: Goettingen
(51.5300°N, 9.9433°E)
Time: 22:51:49
(UTC+02:00)

ISS - Pass Details

Date: 21 April 2025
Orbit: 417 x 420 km, 51.6° (Epoch: 29 April)

Event Time Altitude Azimuth Distance (km) Brightness Sun altitude
Exits shadow 05:15:38 - 193° (SSW) 1,919 -0.8 -8.6°
Reaches altitude 10° 05:17:06 10° 178° (S) 1,489 -1.2 -8.4°
Maximum altitude 05:19:07 15° 140° (SE) 1,218 -1.3 -8.2°
Drops below altitude 10° 05:21:04 10° 104° (ESE) 1,481 -0.3 -7.9°
Sets 05:23:51 0° 80° (E) 2,363 1.6 -7.5°
